Location: ????
(30.1475°N, 31.1342°E)
Time: 07:14:04
(UTC+00:00)

Cosmos 1536 - Pass Details

Date: 27 September 2022
Orbit: 535 x 554 km, 82.5° (Epoch: 28 November)

Event Time Altitude Azimuth Distance (km) Brightness Sun altitude
Rises 02:56:09 0° 345° (NNW) 2,738 6.3 -11.7°
Reaches altitude 10° 02:58:24 10° 339° (NNW) 1,840 5.3 -11.2°
Maximum altitude 03:02:14 43° 268° (W) 788 3.1 -10.4°
Drops below altitude 10° 03:06:03 10° 196° (SSW) 1,824 5.3 -9.6°
Sets 03:08:16 0° 189° (S) 2,712 6.2 -9.1°
